Terminal Aerodrome Forecast
Issued by NWS

Current Version | Previous Version | Graphics & Text | Print | Product List | Glossary On
Versions: 1 2 3 4 5 6 7 8 9 10 11 12 13 14 15 16 17 18 19 20 21
000
FTUS41 KILN 311100
TAFLCK
TAF
KLCK 311120Z 3112/0112 13005KT P6SM VCSH SCT035 BKN050
     FM311700 20011KT P6SM VCSH SCT025 OVC035
     FM312200 32010KT P6SM OVC015
     FM010300 35007KT P6SM OVC007=

USA.gov is the U.S. government's official web portal to all federal, state and local government web resources and services.